Simultaneous Nadir Overpasses (SNOs) Predictions

Prediction of SNOs between GOES-16 and METOP-B Satellite Orbit:

Table of predicted SNOs for the next 14.0 days since TLE Epoch: 9/25/2021
Index Date Time (GOES-16) GOES-16 Lat,Lon METOP-B Lat,Lon Distance(km) Time Diff (sec)
1 09/25/2021 02:39:59 -0.08, -75.18 -0.44, -76.86 190.97 80
2 09/26/2021 02:16:39 -0.08, -75.18 0.67, -71.87 378.21 80
3 09/27/2021 14:38:11 0.09, -75.21 0.34, -76.43 138.19 80
4 09/28/2021 14:14:51 0.09, -75.21 -0.78, -71.43 431.27 80
5 09/30/2021 02:36:31 -0.10, -75.19 -0.27, -76.02 94.03 80
6 10/01/2021 02:13:12 -0.10, -75.20 0.85, -71.03 475.59 80
7 10/02/2021 14:34:42 0.11, -75.23 0.22, -75.58 40.25 80
8 10/05/2021 02:30:24 -0.11, -75.23 -0.08, -75.19 6.20 80
9 10/07/2021 14:28:36 0.11, -75.28 -0.03, -74.75 61.16 80
